owner,sensor,date,latitude,longitude,vertical_datum,wind_speed,wind_to_direction,wind_speed_of_gust,qcFlag 
TABS,ioos:station:wmo:42047:1,2012-04-01T00:00:00Z,27.8966,-93.5973,4.0,2.184032967,127.1850404,2.91,'11111222,11111222,11111222' 
TABS,ioos:station:wmo:42047:1,2012-04-01T00:30:00Z,27.8966,-93.5973,4.0,2.660169168,142.4842349,3.29,'11111222,11111222,11111222' 
TABS,ioos:station:wmo:42047:1,2012-04-01T01:00:00Z,27.8966,-93.5973,4.0,2.678245694,131.3673734,3.28,'11111222,11111222,11111222' 
TABS,ioos:station:wmo:42047:1,2012-04-01T01:30:00Z,27.8966,-93.5973,4.0,2.579457307,131.2280409,3.64,'11111222,11111222,11111222' 
TABS,ioos:station:wmo:42047:1,2012-04-01T02:00:00Z,27.8966,-93.5973,4.0,2.989866218,146.0444739,3.76,'11111222,11111222,11111222' 
TABS,ioos:station:wmo:42047:1,2012-04-01T02:30:00Z,27.8966,-93.5973,4.0,3.699756749,141.3646782,4.57,'11111222,11111222,11111222' 
TABS,ioos:station:wmo:42047:1,2012-04-01T03:00:00Z,27.8966,-93.5973,4.0,3.570952254,140.1125588,4.38,'11111222,11111222,11111222' 
TABS,ioos:station:wmo:42047:1,2012-04-01T03:30:00Z,27.8966,-93.5973,4.0,3.934984117,144.4118368,4.75,'11111222,11111222,11111222' 
TABS,ioos:station:wmo:42047:1,2012-04-01T04:00:00Z,27.8966,-93.5973,4.0,3.229674906,141.285081,4.03,'11111222,11111222,11111222' 
TABS,ioos:station:wmo:42047:1,2012-04-01T04:30:00Z,27.8966,-93.5973,4.0,3.830326357,145.8538577,5.02,'11111222,11111222,11111222' 
TABS,ioos:station:wmo:42047:1,2012-04-01T05:00:00Z,27.8966,-93.5973,4.0,4.236153916,149.5004485,5.24,'11111222,11111222,11111222' 
TABS,ioos:station:wmo:42047:1,2012-04-01T05:30:00Z,27.8966,-93.5973,4.0,5.020318715,155.2729539,6.49,'11111222,11111222,11111222' 
TABS,ioos:station:wmo:42047:1,2012-04-01T06:00:00Z,27.8966,-93.5973,4.0,4.586610949,151.4795446,5.82,'11111222,11111222,11111222' 
TABS,ioos:station:wmo:42047:1,2012-04-01T06:30:00Z,27.8966,-93.5973,4.0,5.160348825,156.7142,6.34,'11111222,11111222,11111222' 
TABS,ioos:station:wmo:42047:1,2012-04-01T07:00:00Z,27.8966,-93.5973,4.0,5.57108607,166.1884918,6.85,'11111222,11111222,11111222' 
TABS,ioos:station:wmo:42047:1,2012-04-01T07:30:00Z,27.8966,-93.5973,4.0,4.899479564,162.7857504,6.33,'11111222,11111222,11111222' 
TABS,ioos:station:wmo:42047:1,2012-04-01T08:00:00Z,27.8966,-93.5973,4.0,4.34590612,171.6650346,5.53,'11111222,11111222,11111222' 
TABS,ioos:station:wmo:42047:1,2012-04-01T08:30:00Z,27.8966,-93.5973,4.0,4.683438907,166.2903827,5.74,'11111222,11111222,11111222' 
TABS,ioos:station:wmo:42047:1,2012-04-01T09:00:00Z,27.8966,-93.5973,4.0,5.754589473,173.7150092,7.6,'11111222,11111222,11111222' 
TABS,ioos:station:wmo:42047:1,2012-04-01T09:30:00Z,27.8966,-93.5973,4.0,5.221283367,171.9632402,6.46,'11111222,11111222,11111222' 
TABS,ioos:station:wmo:42047:1,2012-04-01T10:00:00Z,27.8966,-93.5973,4.0,4.294950524,168.585655,5.37,'11111222,11111222,11111222' 
TABS,ioos:station:wmo:42047:1,2012-04-01T10:30:00Z,27.8966,-93.5973,4.0,4.078357513,164.4986961,5.0,'11111222,11111222,11111222' 
TABS,ioos:station:wmo:42047:1,2012-04-01T11:00:00Z,27.8966,-93.5973,4.0,4.295544203,158.9914778,5.3,'11111222,11111222,11111222' 
TABS,ioos:station:wmo:42047:1,2012-04-01T11:30:00Z,27.8966,-93.5973,4.0,4.32722775,151.4215195,5.45,'11111222,11111222,11111222' 
TABS,ioos:station:wmo:42047:1,2012-04-01T12:00:00Z,27.8966,-93.5973,4.0,3.569677857,146.8889459,4.59,'11111222,11111222,11111222' 
TABS,ioos:station:wmo:42047:1,2012-04-01T12:30:00Z,27.8966,-93.5973,4.0,4.034761455,152.2285071,5.14,'11111222,11111222,11111222' 
TABS,ioos:station:wmo:42047:1,2012-04-01T13:00:00Z,27.8966,-93.5973,4.0,4.13140412,148.9651744,5.07,'11111222,11111222,11111222' 
TABS,ioos:station:wmo:42047:1,2012-04-01T13:30:00Z,27.8966,-93.5973,4.0,3.936495904,154.737171,4.97,'11111222,11111222,11111222' 
TABS,ioos:station:wmo:42047:1,2012-04-01T14:00:00Z,27.8966,-93.5973,4.0,3.399117533,154.189068,4.29,'11111222,11111222,11111222' 
TABS,ioos:station:wmo:42047:1,2012-04-01T14:30:00Z,27.8966,-93.5973,4.0,3.488036697,143.3932212,4.33,'11111222,11111222,11111222' 
TABS,ioos:station:wmo:42047:1,2012-04-01T15:00:00Z,27.8966,-93.5973,4.0,3.096837096,144.4626158,3.89,'11111222,11111222,11111222' 
TABS,ioos:station:wmo:42047:1,2012-04-01T15:30:00Z,27.8966,-93.5973,4.0,2.593067681,148.8849509,3.45,'11111222,11111222,11111222' 
TABS,ioos:station:wmo:42047:1,2012-04-01T16:00:00Z,27.8966,-93.5973,4.0,3.289407241,148.6780598,4.07,'11111222,11111222,11111222' 
TABS,ioos:station:wmo:42047:1,2012-04-01T16:30:00Z,27.8966,-93.5973,4.0,3.958004548,145.7079771,5.02,'11111222,11111222,11111222' 
TABS,ioos:station:wmo:42047:1,2012-04-01T17:00:00Z,27.8966,-93.5973,4.0,4.359931192,149.8478974,5.76,'11111222,11111222,11111222' 
TABS,ioos:station:wmo:42047:1,2012-04-01T17:30:00Z,27.8966,-93.5973,4.0,3.528172331,147.0308837,4.67,'11111222,11111222,11111222' 
TABS,ioos:station:wmo:42047:1,2012-04-01T18:00:00Z,27.8966,-93.5973,4.0,4.227114855,152.2227961,5.33,'11111222,11111222,11111222' 
TABS,ioos:station:wmo:42047:1,2012-04-01T18:30:00Z,27.8966,-93.5973,4.0,4.663099827,149.3104644,5.95,'11111222,11111222,11111222' 
TABS,ioos:station:wmo:42047:1,2012-04-01T19:00:00Z,27.8966,-93.5973,4.0,3.672397037,143.9729213,4.88,'11111222,11111222,11111222' 
TABS,ioos:station:wmo:42047:1,2012-04-01T19:30:00Z,27.8966,-93.5973,4.0,3.289513642,145.7788271,4.16,'11111222,11111222,11111222' 
TABS,ioos:station:wmo:42047:1,2012-04-01T20:00:00Z,27.8966,-93.5973,4.0,3.752998801,140.8397943,4.74,'11111222,11111222,11111222' 
TABS,ioos:station:wmo:42047:1,2012-04-01T20:30:00Z,27.8966,-93.5973,4.0,3.382085156,126.4636468,4.27,'11111222,11111222,11111222' 
TABS,ioos:station:wmo:42047:1,2012-04-01T21:00:00Z,27.8966,-93.5973,4.0,4.647633807,136.6568057,5.73,'11111222,11111222,11111222' 
TABS,ioos:station:wmo:42047:1,2012-04-01T21:30:00Z,27.8966,-93.5973,4.0,4.11,129.9665405,5.54,'11111222,11111222,11111222' 
TABS,ioos:station:wmo:42047:1,2012-04-01T22:00:00Z,27.8966,-93.5973,4.0,4.118859065,123.1116854,5.47,'11111222,11111222,11111222' 
TABS,ioos:station:wmo:42047:1,2012-04-01T22:30:00Z,27.8966,-93.5973,4.0,4.274400543,122.8724872,5.28,'11111222,11111222,11111222' 
TABS,ioos:station:wmo:42047:1,2012-04-01T23:00:00Z,27.8966,-93.5973,4.0,4.806880485,125.7735707,5.9,'11111222,11111222,11111222' 
TABS,ioos:station:wmo:42047:1,2012-04-01T23:30:00Z,27.8966,-93.5973,4.0,5.705479822,124.358875,7.2,'11111222,11111222,11111222' 
TABS,ioos:station:wmo:42047:1,2012-04-02T00:00:00Z,27.8966,-93.5973,4.0,5.891027075,130.0425021,7.44,'11111222,11111222,11111222' 
TABS,ioos:station:wmo:42047:1,2012-04-02T00:30:00Z,27.8966,-93.5973,4.0,5.586242028,126.3368833,6.94,'11111222,11111222,11111222' 
TABS,ioos:station:wmo:42047:1,2012-04-02T01:00:00Z,27.8966,-93.5973,4.0,6.063827174,129.7817031,7.68,'11111222,11111222,11111222' 
TABS,ioos:station:wmo:42047:1,2012-04-02T01:30:00Z,27.8966,-93.5973,4.0,5.762022214,127.0293313,7.43,'11111222,11111222,11111222' 
TABS,ioos:station:wmo:42047:1,2012-04-02T02:00:00Z,27.8966,-93.5973,4.0,5.098725331,125.9037831,6.15,'11111222,11111222,11111222' 
TABS,ioos:station:wmo:42047:1,2012-04-02T02:30:00Z,27.8966,-93.5973,4.0,5.180009653,126.7596231,6.56,'11111222,11111222,11111222' 
TABS,ioos:station:wmo:42047:1,2012-04-02T03:00:00Z,27.8966,-93.5973,4.0,4.802520172,131.6239553,6.21,'11111222,11111222,11111222' 
TABS,ioos:station:wmo:42047:1,2012-04-02T03:30:00Z,27.8966,-93.5973,4.0,4.804050374,130.1876606,5.83,'11111222,11111222,11111222' 
TABS,ioos:station:wmo:42047:1,2012-04-02T04:00:00Z,27.8966,-93.5973,4.0,4.862766702,137.5839561,6.3,'11111222,11111222,11111222' 
TABS,ioos:station:wmo:42047:1,2012-04-02T04:30:00Z,27.8966,-93.5973,4.0,5.03361699,137.8185015,6.36,'11111222,11111222,11111222' 
TABS,ioos:station:wmo:42047:1,2012-04-02T05:00:00Z,27.8966,-93.5973,4.0,5.522626187,145.4757384,8.59,'11111222,11111222,11111222' 
TABS,ioos:station:wmo:42047:1,2012-04-02T05:30:00Z,27.8966,-93.5973,4.0,6.650187967,170.0421631,8.43,'11111222,11111222,11111222' 
TABS,ioos:station:wmo:42047:1,2012-04-02T06:00:00Z,27.8966,-93.5973,4.0,6.163651515,183.8142764,8.0,'11111222,11111222,11111222' 
TABS,ioos:station:wmo:42047:1,2012-04-02T06:30:00Z,27.8966,-93.5973,4.0,5.019103506,170.4816094,6.48,'11111222,11111222,11111222' 
TABS,ioos:station:wmo:42047:1,2012-04-02T07:00:00Z,27.8966,-93.5973,4.0,4.17714017,156.1352664,5.24,'11111222,11111222,11111222' 
TABS,ioos:station:wmo:42047:1,2012-04-02T07:30:00Z,27.8966,-93.5973,4.0,4.115167068,144.4949862,5.61,'11111222,11111222,11111222' 
TABS,ioos:station:wmo:42047:1,2012-04-02T08:00:00Z,27.8966,-93.5973,4.0,4.568063047,142.8293739,5.54,'11111222,11111222,11111222' 
TABS,ioos:station:wmo:42047:1,2012-04-02T08:30:00Z,27.8966,-93.5973,4.0,4.77,148.1094932,6.22,'11111222,11111222,11111222' 
TABS,ioos:station:wmo:42047:1,2012-04-02T09:00:00Z,27.8966,-93.5973,4.0,5.050782118,150.5930902,6.22,'11111222,11111222,11111222' 
TABS,ioos:station:wmo:42047:1,2012-04-02T09:30:00Z,27.8966,-93.5973,4.0,5.421226798,165.1437155,6.84,'11111222,11111222,11111222' 
TABS,ioos:station:wmo:42047:1,2012-04-02T10:00:00Z,27.8966,-93.5973,4.0,5.748156226,165.6980726,7.41,'11111222,11111222,11111222' 
TABS,ioos:station:wmo:42047:1,2012-04-02T10:30:00Z,27.8966,-93.5973,4.0,5.471608539,166.0401908,7.21,'11111222,11111222,11111222' 
TABS,ioos:station:wmo:42047:1,2012-04-02T11:00:00Z,27.8966,-93.5973,4.0,4.693964209,169.8154817,5.97,'11111222,11111222,11111222' 
TABS,ioos:station:wmo:42047:1,2012-04-02T11:30:00Z,27.8966,-93.5973,4.0,4.996318645,150.7674614,6.57,'11111222,11111222,11111222' 
TABS,ioos:station:wmo:42047:1,2012-04-02T12:00:00Z,27.8966,-93.5973,4.0,5.827881262,139.1750758,7.22,'11111222,11111222,11111222' 
TABS,ioos:station:wmo:42047:1,2012-04-02T12:30:00Z,27.8966,-93.5973,4.0,5.34846707,157.4628026,6.59,'11111222,11111222,11111222' 
TABS,ioos:station:wmo:42047:1,2012-04-02T13:00:00Z,27.8966,-93.5973,4.0,6.046924838,157.3366668,7.6,'11111222,11111222,11111222' 
TABS,ioos:station:wmo:42047:1,2012-04-02T13:30:00Z,27.8966,-93.5973,4.0,4.781140031,159.5564201,6.07,'11111222,11111222,11111222' 
TABS,ioos:station:wmo:42047:1,2012-04-02T14:00:00Z,27.8966,-93.5973,4.0,3.405950675,160.9801328,4.24,'11111222,11111222,11111222' 
TABS,ioos:station:wmo:42047:1,2012-04-02T14:30:00Z,27.8966,-93.5973,4.0,3.417908717,156.7356401,4.63,'11111222,11111222,11111222' 
TABS,ioos:station:wmo:42047:1,2012-04-02T15:00:00Z,27.8966,-93.5973,4.0,4.266438796,136.9948803,5.67,'11111222,11111222,11111222' 
TABS,ioos:station:wmo:42047:1,2012-04-02T15:30:00Z,27.8966,-93.5973,4.0,3.323431961,44.75587453,7.4,'11111222,11111222,11111222' 
TABS,ioos:station:wmo:42047:1,2012-04-02T16:00:00Z,27.8966,-93.5973,4.0,6.663520091,26.75704514,9.18,'11111222,11111222,11111222' 
TABS,ioos:station:wmo:42047:1,2012-04-02T16:30:00Z,27.8966,-93.5973,4.0,5.559928057,21.30360318,7.1,'11111222,11111222,11111222' 
TABS,ioos:station:wmo:42047:1,2012-04-02T17:00:00Z,27.8966,-93.5973,4.0,6.124026453,25.22575241,7.8,'11111222,11111222,11111222' 
TABS,ioos:station:wmo:42047:1,2012-04-02T17:30:00Z,27.8966,-93.5973,4.0,4.941457275,38.26112437,6.36,'11111222,11111222,11111222' 
TABS,ioos:station:wmo:42047:1,2012-04-02T18:00:00Z,27.8966,-93.5973,4.0,4.338202393,62.84393419,5.29,'11111222,11111222,11111222' 
TABS,ioos:station:wmo:42047:1,2012-04-02T18:30:00Z,27.8966,-93.5973,4.0,5.016781837,85.3118242,6.26,'11111222,11111222,11111222' 
TABS,ioos:station:wmo:42047:1,2012-04-02T19:00:00Z,27.8966,-93.5973,4.0,5.298018498,106.1091838,6.58,'11111222,11111222,11111222' 
TABS,ioos:station:wmo:42047:1,2012-04-02T19:30:00Z,27.8966,-93.5973,4.0,5.723250824,112.1735824,7.01,'11111222,11111222,11111222' 
TABS,ioos:station:wmo:42047:1,2012-04-02T20:00:00Z,27.8966,-93.5973,4.0,5.417102547,135.8978242,7.08,'11111222,11111222,11111222' 
TABS,ioos:station:wmo:42047:1,2012-04-02T20:30:00Z,27.8966,-93.5973,4.0,5.576970504,128.7403622,6.87,'11111222,11111222,11111222' 
TABS,ioos:station:wmo:42047:1,2012-04-02T21:00:00Z,27.8966,-93.5973,4.0,6.656876144,142.2008037,8.95,'11111222,11111222,11111222' 
TABS,ioos:station:wmo:42047:1,2012-04-02T21:30:00Z,27.8966,-93.5973,4.0,6.538539592,142.394307,8.73,'11111222,11111222,11111222' 
TABS,ioos:station:wmo:42047:1,2012-04-02T22:00:00Z,27.8966,-93.5973,4.0,6.687428504,147.0231129,8.87,'11111222,11111222,11111222' 
TABS,ioos:station:wmo:42047:1,2012-04-02T22:30:00Z,27.8966,-93.5973,4.0,5.792754095,150.868819,7.6,'11111222,11111222,11111222' 
TABS,ioos:station:wmo:42047:1,2012-04-02T23:00:00Z,27.8966,-93.5973,4.0,6.397702713,156.1196154,8.13,'11111222,11111222,11111222' 
TABS,ioos:station:wmo:42047:1,2012-04-02T23:30:00Z,27.8966,-93.5973,4.0,6.313834017,155.3835778,7.77,'11111222,11111222,11111222' 
TABS,ioos:station:wmo:42047:1,2012-04-03T00:00:00Z,27.8966,-93.5973,4.0,6.85860773,155.0792635,8.44,'11111222,11111222,11111222' 
TABS,ioos:station:wmo:42047:1,2012-04-03T00:30:00Z,27.8966,-93.5973,4.0,7.181991367,155.3978556,8.62,'11111222,11111222,11111222' 
TABS,ioos:station:wmo:42047:1,2012-04-03T01:00:00Z,27.8966,-93.5973,4.0,6.619705432,154.4029612,8.12,'11111222,11111222,11111222' 
TABS,ioos:station:wmo:42047:1,2012-04-03T01:30:00Z,27.8966,-93.5973,4.0,7.191731363,160.7590868,9.27,'11111222,11111222,11111222' 
TABS,ioos:station:wmo:42047:1,2012-04-03T02:00:00Z,27.8966,-93.5973,4.0,7.348339949,158.7780149,9.88,'11111222,11111222,11111222' 
TABS,ioos:station:wmo:42047:1,2012-04-03T02:30:00Z,27.8966,-93.5973,4.0,7.363321261,155.871864,9.19,'11111222,11111222,11111222' 
TABS,ioos:station:wmo:42047:1,2012-04-03T03:00:00Z,27.8966,-93.5973,4.0,7.81170916,150.219009,9.28,'11111222,11111222,11111222' 
TABS,ioos:station:wmo:42047:1,2012-04-03T03:30:00Z,27.8966,-93.5973,4.0,7.98660128,150.1931112,10.84,'11111222,11111222,11111222' 
TABS,ioos:station:wmo:42047:1,2012-04-03T04:00:00Z,27.8966,-93.5973,4.0,8.102246602,149.764205,10.22,'11111222,11111222,11111222' 
TABS,ioos:station:wmo:42047:1,2012-04-03T04:30:00Z,27.8966,-93.5973,4.0,8.016794871,148.1539931,10.41,'11111222,11111222,11111222' 
TABS,ioos:station:wmo:42047:1,2012-04-03T05:00:00Z,27.8966,-93.5973,4.0,7.979486199,142.0245537,9.67,'11111222,11111222,11111222' 
TABS,ioos:station:wmo:42047:1,2012-04-03T05:30:00Z,27.8966,-93.5973,4.0,8.104819554,147.0356925,9.88,'11111222,11111222,11111222' 
TABS,ioos:station:wmo:42047:1,2012-04-03T06:00:00Z,27.8966,-93.5973,4.0,7.975926278,152.1179429,10.23,'11111222,11111222,11111222' 
TABS,ioos:station:wmo:42047:1,2012-04-03T06:30:00Z,27.8966,-93.5973,4.0,8.296029171,159.0966283,10.53,'11111222,11111222,11111222' 
TABS,ioos:station:wmo:42047:1,2012-04-03T07:00:00Z,27.8966,-93.5973,4.0,8.912014363,155.0455182,12.33,'11111222,11111222,11111222' 
TABS,ioos:station:wmo:42047:1,2012-04-03T07:30:00Z,27.8966,-93.5973,4.0,8.769492574,155.1886222,11.37,'11111222,11111222,11111222' 
TABS,ioos:station:wmo:42047:1,2012-04-03T08:00:00Z,27.8966,-93.5973,4.0,8.227375037,155.8963595,11.19,'11111222,11111222,11111222' 
TABS,ioos:station:wmo:42047:1,2012-04-03T08:30:00Z,27.8966,-93.5973,4.0,7.58113448,149.9179283,10.12,'11111222,11111222,11111222' 
TABS,ioos:station:wmo:42047:1,2012-04-03T09:00:00Z,27.8966,-93.5973,4.0,6.249231953,137.3997488,7.73,'11111222,11111222,11111222' 
TABS,ioos:station:wmo:42047:1,2012-04-03T09:30:00Z,27.8966,-93.5973,4.0,5.45550181,125.5258069,7.07,'11111222,11111222,11111222' 
TABS,ioos:station:wmo:42047:1,2012-04-03T10:00:00Z,27.8966,-93.5973,4.0,5.635929382,130.8993436,7.15,'11111222,11111222,11111222' 
TABS,ioos:station:wmo:42047:1,2012-04-03T10:30:00Z,27.8966,-93.5973,4.0,4.579082878,128.9727995,5.94,'11111222,11111222,11111222' 
TABS,ioos:station:wmo:42047:1,2012-04-03T11:00:00Z,27.8966,-93.5973,4.0,5.442067622,132.6918582,6.51,'11111222,11111222,11111222' 
TABS,ioos:station:wmo:42047:1,2012-04-03T11:30:00Z,27.8966,-93.5973,4.0,5.31116748,134.0086126,7.07,'11111222,11111222,11111222' 
TABS,ioos:station:wmo:42047:1,2012-04-03T12:00:00Z,27.8966,-93.5973,4.0,5.720734219,139.9639097,7.35,'11111222,11111222,11111222' 
TABS,ioos:station:wmo:42047:1,2012-04-03T12:30:00Z,27.8966,-93.5973,4.0,6.174504029,133.7535283,7.5,'11111222,11111222,11111222' 
TABS,ioos:station:wmo:42047:1,2012-04-03T13:00:00Z,27.8966,-93.5973,4.0,6.588535497,127.6007383,8.17,'11111222,11111222,11111222' 
TABS,ioos:station:wmo:42047:1,2012-04-03T13:30:00Z,27.8966,-93.5973,4.0,7.022050982,130.4954194,9.18,'11111222,11111222,11111222' 
TABS,ioos:station:wmo:42047:1,2012-04-03T14:00:00Z,27.8966,-93.5973,4.0,8.195736697,134.4565425,10.61,'11111222,11111222,11111222' 
TABS,ioos:station:wmo:42047:1,2012-04-03T14:30:00Z,27.8966,-93.5973,4.0,7.870101651,134.9488371,9.85,'11111222,11111222,11111222' 
TABS,ioos:station:wmo:42047:1,2012-04-03T15:00:00Z,27.8966,-93.5973,4.0,8.384229243,136.9819062,10.44,'11111222,11111222,11111222' 
TABS,ioos:station:wmo:42047:1,2012-04-03T15:30:00Z,27.8966,-93.5973,4.0,7.95103138,137.9059716,9.93,'11111222,11111222,11111222' 
TABS,ioos:station:wmo:42047:1,2012-04-03T16:00:00Z,27.8966,-93.5973,4.0,7.852165306,137.9425885,9.55,'11111222,11111222,11111222' 
TABS,ioos:station:wmo:42047:1,2012-04-03T16:30:00Z,27.8966,-93.5973,4.0,7.390331522,142.587696,9.24,'11111222,11111222,11111222' 
TABS,ioos:station:wmo:42047:1,2012-04-03T17:00:00Z,27.8966,-93.5973,4.0,6.578092429,141.1092436,8.19,'11111222,11111222,11111222' 
TABS,ioos:station:wmo:42047:1,2012-04-03T17:30:00Z,27.8966,-93.5973,4.0,6.487233617,146.187743,8.18,'11111222,11111222,11111222' 
TABS,ioos:station:wmo:42047:1,2012-04-03T18:00:00Z,27.8966,-93.5973,4.0,7.110028129,143.2915678,8.72,'11111222,11111222,11111222' 
TABS,ioos:station:wmo:42047:1,2012-04-03T18:30:00Z,27.8966,-93.5973,4.0,7.348013337,144.4716801,9.45,'11111222,11111222,11111222' 
TABS,ioos:station:wmo:42047:1,2012-04-03T19:00:00Z,27.8966,-93.5973,4.0,6.79508646,146.4037655,8.79,'11111222,11111222,11111222' 
TABS,ioos:station:wmo:42047:1,2012-04-03T19:30:00Z,27.8966,-93.5973,4.0,6.685057965,145.359344,8.4,'11111222,11111222,11111222' 
TABS,ioos:station:wmo:42047:1,2012-04-03T20:00:00Z,27.8966,-93.5973,4.0,6.623480958,150.4163411,8.66,'11111222,11111222,11111222' 
TABS,ioos:station:wmo:42047:1,2012-04-03T20:30:00Z,27.8966,-93.5973,4.0,6.91749232,149.9882881,8.73,'11111222,11111222,11111222' 
TABS,ioos:station:wmo:42047:1,2012-04-03T21:00:00Z,27.8966,-93.5973,4.0,5.751495458,150.1812616,7.15,'11111222,11111222,11111222' 
TABS,ioos:station:wmo:42047:1,2012-04-03T21:30:00Z,27.8966,-93.5973,4.0,5.734152073,150.0818887,7.22,'11111222,11111222,11111222' 
TABS,ioos:station:wmo:42047:1,2012-04-03T22:00:00Z,27.8966,-93.5973,4.0,5.756266151,152.5894264,7.12,'11111222,11111222,11111222' 
TABS,ioos:station:wmo:42047:1,2012-04-03T22:30:00Z,27.8966,-93.5973,4.0,5.539187666,147.0848277,7.16,'11111222,11111222,11111222' 
TABS,ioos:station:wmo:42047:1,2012-04-03T23:00:00Z,27.8966,-93.5973,4.0,5.457930011,148.0282847,7.21,'11111222,11111222,11111222' 
TABS,ioos:station:wmo:42047:1,2012-04-03T23:30:00Z,27.8966,-93.5973,4.0,5.166749462,142.1544933,6.32,'11111222,11111222,11111222' 
TABS,ioos:station:wmo:42047:1,2012-04-04T00:00:00Z,27.8966,-93.5973,4.0,5.947007651,145.4818443,7.35,'11111222,11111222,11111222' 
TABS,ioos:station:wmo:42047:1,2012-04-04T00:30:00Z,27.8966,-93.5973,4.0,6.499423051,150.2007273,8.23,'11111222,11111222,11111222' 
TABS,ioos:station:wmo:42047:1,2012-04-04T01:00:00Z,27.8966,-93.5973,4.0,6.453479682,152.9984647,8.04,'11111222,11111222,11111222' 
TABS,ioos:station:wmo:42047:1,2012-04-04T01:30:00Z,27.8966,-93.5973,4.0,5.907529094,156.5597069,7.6,'11111222,11111222,11111222' 
TABS,ioos:station:wmo:42047:1,2012-04-04T02:00:00Z,27.8966,-93.5973,4.0,5.557877293,151.4062725,7.04,'11111222,11111222,11111222' 
TABS,ioos:station:wmo:42047:1,2012-04-04T02:30:00Z,27.8966,-93.5973,4.0,5.761466827,150.0087021,7.2,'11111222,11111222,11111222' 
TABS,ioos:station:wmo:42047:1,2012-04-04T03:00:00Z,27.8966,-93.5973,4.0,6.106275461,150.034271,7.62,'11111222,11111222,11111222' 
TABS,ioos:station:wmo:42047:1,2012-04-04T03:30:00Z,27.8966,-93.5973,4.0,6.489144782,153.1588145,7.76,'11111222,11111222,11111222' 
TABS,ioos:station:wmo:42047:1,2012-04-04T04:00:00Z,27.8966,-93.5973,4.0,6.198144884,161.2729826,7.69,'11111222,11111222,11111222' 
TABS,ioos:station:wmo:42047:1,2012-04-04T04:30:00Z,27.8966,-93.5973,4.0,5.835451996,162.6520837,7.92,'11111222,11111222,11111222' 
TABS,ioos:station:wmo:42047:1,2012-04-04T05:00:00Z,27.8966,-93.5973,4.0,4.702690719,162.2973545,6.11,'11111222,11111222,11111222' 
TABS,ioos:station:wmo:42047:1,2012-04-04T05:30:00Z,27.8966,-93.5973,4.0,5.577902832,156.8826002,6.75,'11111222,11111222,11111222' 
TABS,ioos:station:wmo:42047:1,2012-04-04T06:00:00Z,27.8966,-93.5973,4.0,4.169664255,166.8305345,5.38,'11111222,11111222,11111222' 
TABS,ioos:station:wmo:42047:1,2012-04-04T06:30:00Z,27.8966,-93.5973,4.0,4.008441093,176.2812252,5.01,'11111222,11111222,11111222' 
TABS,ioos:station:wmo:42047:1,2012-04-04T07:00:00Z,27.8966,-93.5973,4.0,4.483324659,168.2892916,5.78,'11111222,11111222,11111222' 
TABS,ioos:station:wmo:42047:1,2012-04-04T07:30:00Z,27.8966,-93.5973,4.0,4.04520704,162.5955298,5.46,'11111222,11111222,11111222' 
TABS,ioos:station:wmo:42047:1,2012-04-04T08:00:00Z,27.8966,-93.5973,4.0,3.608171282,172.8358188,4.72,'11111222,11111222,11111222' 
TABS,ioos:station:wmo:42047:1,2012-04-04T08:30:00Z,27.8966,-93.5973,4.0,2.79973213,189.6643734,3.55,'11111222,11111222,11111222' 
TABS,ioos:station:wmo:42047:1,2012-04-04T09:00:00Z,27.8966,-93.5973,4.0,2.28641641,222.3412271,2.98,'11111222,11111222,11111222' 
TABS,ioos:station:wmo:42047:1,2012-04-04T09:30:00Z,27.8966,-93.5973,4.0,1.16691902,252.0309023,1.75,'11111222,11111222,11111222' 
TABS,ioos:station:wmo:42047:1,2012-04-04T10:00:00Z,27.8966,-93.5973,4.0,1.142716063,278.5555382,2.19,'11111222,11111222,11111222' 
TABS,ioos:station:wmo:42047:1,2012-04-04T10:30:00Z,27.8966,-93.5973,4.0,0.461735855,4.969518648,1.22,'11111222,11111222,11111222' 
TABS,ioos:station:wmo:42047:1,2012-04-04T11:00:00Z,27.8966,-93.5973,4.0,1.243382483,64.25893092,2.24,'11111222,11111222,11111222' 
TABS,ioos:station:wmo:42047:1,2012-04-04T11:30:00Z,27.8966,-93.5973,4.0,1.589276565,123.1904603,2.31,'11111222,11111222,11111222' 
TABS,ioos:station:wmo:42047:1,2012-04-04T12:00:00Z,27.8966,-93.5973,4.0,1.590125781,113.3408949,2.3,'11111222,11111222,11111222' 
TABS,ioos:station:wmo:42047:1,2012-04-04T12:30:00Z,27.8966,-93.5973,4.0,2.638219096,119.77217,3.8,'11111222,11111222,11111222' 
TABS,ioos:station:wmo:42047:1,2012-04-04T13:00:00Z,27.8966,-93.5973,4.0,1.533949152,100.1382011,3.09,'11111222,11111222,11111222' 
TABS,ioos:station:wmo:42047:1,2012-04-04T13:30:00Z,27.8966,-93.5973,4.0,3.547647108,118.0823424,4.8,'11111222,11111222,11111222' 
TABS,ioos:station:wmo:42047:1,2012-04-04T14:00:00Z,27.8966,-93.5973,4.0,3.443733439,108.2774878,4.51,'11111222,11111222,11111222' 
TABS,ioos:station:wmo:42047:1,2012-04-04T14:30:00Z,27.8966,-93.5973,4.0,3.314845396,122.6836442,4.08,'11111222,11111222,11111222' 
TABS,ioos:station:wmo:42047:1,2012-04-04T15:00:00Z,27.8966,-93.5973,4.0,2.765230551,136.0259594,3.57,'11111222,11111222,11111222' 
TABS,ioos:station:wmo:42047:1,2012-04-04T15:30:00Z,27.8966,-93.5973,4.0,3.630550922,146.5728432,4.46,'11111222,11111222,11111222' 
TABS,ioos:station:wmo:42047:1,2012-04-04T16:00:00Z,27.8966,-93.5973,4.0,3.351492205,144.8402091,4.52,'11111222,11111222,11111222' 
TABS,ioos:station:wmo:42047:1,2012-04-04T16:30:00Z,27.8966,-93.5973,4.0,2.652772135,144.512831,3.55,'11111222,11111222,11111222' 
TABS,ioos:station:wmo:42047:1,2012-04-04T17:00:00Z,27.8966,-93.5973,4.0,1.120044642,142.6188444,2.56,'11111222,11111222,11111222' 
TABS,ioos:station:wmo:42047:1,2012-04-04T17:30:00Z,27.8966,-93.5973,4.0,0.161245155,209.7450222,2.0,'11111222,11111222,11111222' 
TABS,ioos:station:wmo:42047:1,2012-04-04T18:00:00Z,27.8966,-93.5973,4.0,0.742765104,223.363532,1.67,'11111222,11111222,11111222' 
TABS,ioos:station:wmo:42047:1,2012-04-04T18:30:00Z,27.8966,-93.5973,4.0,2.361355543,153.869271,3.53,'11111222,11111222,11111222' 